Time,TemperatureF,DewpointF,PressureIn,WindDirection,WindDirectionDegrees,WindSpeedMPH,WindSpeedGustMPH,Humidity,HourlyPrecipIn,Conditions,Clouds,dailyrainin,SoftwareType,DateUTC
2013-08-26 00:01:00,67.9,62.7,30.22,SW,215,0.0,3.0,83,0.00,,OVC OVC///CB,0.00,WUHU216DAVISVP2,2013-08-26 04:01:00,
2013-08-26 00:06:00,67.7,62.5,30.22,SSW,201,0.0,3.0,83,0.00,,OVC OVC///CB,0.00,WUHU216DAVISVP2,2013-08-26 04:06:00,
2013-08-26 00:11:00,67.6,62.4,30.22,SSW,205,0.0,2.0,83,0.00,,OVC OVC///CB,0.00,WUHU216DAVISVP2,2013-08-26 04:11:00,
2013-08-26 00:16:00,67.3,62.5,30.22,SSW,194,0.0,2.0,84,0.00,,OVC OVC///CB,0.00,WUHU216DAVISVP2,2013-08-26 04:16:00,
2013-08-26 00:21:00,67.2,62.4,30.22,SSW,205,1.0,1.0,84,0.00,,OVC OVC///CB,0.00,WUHU216DAVISVP2,2013-08-26 04:21:00,
2013-08-26 00:26:00,67.1,62.3,30.22,SW,221,0.0,1.0,84,0.00,,OVC OVC///CB,0.00,WUHU216DAVISVP2,2013-08-26 04:26:00,
2013-08-26 00:31:00,67.1,62.3,30.22,SSE,168,0.0,1.0,84,0.00,,OVC OVC///CB,0.00,WUHU216DAVISVP2,2013-08-26 04:31:00,
2013-08-26 00:36:00,66.9,62.1,30.22,South,172,0.0,1.0,84,0.00,,OVC OVC///CB,0.00,WUHU216DAVISVP2,2013-08-26 04:36:00,
2013-08-26 00:41:00,66.8,62.0,30.22,SSW,212,0.0,1.0,84,0.00,,OVC OVC///CB,0.00,WUHU216DAVISVP2,2013-08-26 04:41:00,
2013-08-26 00:46:00,66.7,62.2,30.21,SSW,212,0.0,1.0,85,0.00,,OVC OVC///CB,0.00,WUHU216DAVISVP2,2013-08-26 04:46:00,
2013-08-26 00:51:00,66.6,62.1,30.22,SSW,205,0.0,1.0,85,0.00,,OVC OVC///CB,0.00,WUHU216DAVISVP2,2013-08-26 04:51:00,
2013-08-26 00:56:00,66.6,62.1,30.22,SSW,205,0.0,1.0,85,0.00,,OVC OVC///CB,0.00,WUHU216DAVISVP2,2013-08-26 04:56:00,
2013-08-26 01:01:00,66.5,62.0,30.22,SW,221,0.0,1.0,85,0.00,,OVC OVC///CB,0.00,WUHU216DAVISVP2,2013-08-26 05:01:00,
2013-08-26 01:06:00,66.6,62.1,30.21,SW,231,0.0,2.0,85,0.00,,OVC OVC///CB,0.00,WUHU216DAVISVP2,2013-08-26 05:06:00,
2013-08-26 01:11:00,66.6,61.8,30.21,SSW,207,0.0,2.0,84,0.00,,OVC OVC///CB,0.00,WUHU216DAVISVP2,2013-08-26 05:11:00,
2013-08-26 01:16:00,66.4,61.9,30.21,SSW,201,0.0,2.0,85,0.00,,OVC OVC///CB,0.00,WUHU216DAVISVP2,2013-08-26 05:16:00,
2013-08-26 01:21:00,66.3,61.8,30.21,WSW,245,0.0,2.0,85,0.00,,OVC OVC///CB,0.00,WUHU216DAVISVP2,2013-08-26 05:21:00,
2013-08-26 01:26:00,66.3,61.8,30.21,SW,226,1.0,2.0,85,0.00,,OVC OVC///CB,0.00,WUHU216DAVISVP2,2013-08-26 05:26:00,
2013-08-26 01:31:00,66.3,61.8,30.20,SSW,212,0.0,2.0,85,0.00,,OVC OVC///CB,0.00,WUHU216DAVISVP2,2013-08-26 05:31:00,
2013-08-26 01:36:00,66.2,61.7,30.20,SW,226,2.0,4.0,85,0.00,,OVC OVC///CB,0.00,WUHU216DAVISVP2,2013-08-26 05:36:00,
2013-08-26 01:41:00,66.2,61.7,30.20,South,181,1.0,5.0,85,0.00,,OVC OVC///CB,0.00,WUHU216DAVISVP2,2013-08-26 05:41:00,
2013-08-26 01:46:00,66.2,61.7,30.20,SW,226,2.0,5.0,85,0.00,,OVC OVC///CB,0.00,WUHU216DAVISVP2,2013-08-26 05:46:00,
2013-08-26 01:51:00,66.2,61.7,30.20,SSW,207,1.0,5.0,85,0.00,,OVC OVC///CB,0.00,WUHU216DAVISVP2,2013-08-26 05:51:00,
2013-08-26 01:56:00,66.2,61.7,30.19,SSW,210,1.0,5.0,85,0.00,,OVC OVC///CB,0.00,WUHU216DAVISVP2,2013-08-26 05:56:00,
2013-08-26 02:01:00,66.2,61.7,30.19,SW,228,0.0,5.0,85,0.00,,OVC OVC///CB,0.00,WUHU216DAVISVP2,2013-08-26 06:01:00,
2013-08-26 02:06:00,66.2,61.7,30.20,SW,219,1.0,5.0,85,0.00,,OVC OVC///CB,0.00,WUHU216DAVISVP2,2013-08-26 06:06:00,
2013-08-26 02:11:00,66.2,61.7,30.20,WSW,252,2.0,4.0,85,0.00,,OVC OVC///CB,0.00,WUHU216DAVISVP2,2013-08-26 06:11:00,
2013-08-26 02:16:00,66.3,61.8,30.19,SSW,204,1.0,4.0,85,0.00,,OVC OVC///CB,0.00,WUHU216DAVISVP2,2013-08-26 06:16:00,
2013-08-26 02:21:00,66.2,61.7,30.19,WSW,252,1.0,4.0,85,0.00,,OVC OVC///CB,0.00,WUHU216DAVISVP2,2013-08-26 06:21:00,
2013-08-26 02:26:00,66.0,61.5,30.19,SW,226,1.0,6.0,85,0.00,,OVC OVC///CB,0.00,WUHU216DAVISVP2,2013-08-26 06:26:00,
2013-08-26 02:31:00,66.0,61.5,30.19,SSW,203,0.0,6.0,85,0.00,,OVC OVC///CB,0.00,WUHU216DAVISVP2,2013-08-26 06:31:00,
2013-08-26 02:36:00,66.0,61.5,30.19,South,176,1.0,6.0,85,0.00,,OVC OVC///CB,0.00,WUHU216DAVISVP2,2013-08-26 06:36:00,
2013-08-26 02:41:00,65.9,61.4,30.19,SW,214,0.0,6.0,85,0.00,,OVC OVC///CB,0.00,WUHU216DAVISVP2,2013-08-26 06:41:00,
2013-08-26 02:46:00,65.8,61.3,30.18,SW,217,0.0,4.0,85,0.00,,OVC OVC///CB,0.00,WUHU216DAVISVP2,2013-08-26 06:46:00,
2013-08-26 02:51:00,65.8,61.3,30.18,WSW,257,0.0,3.0,85,0.00,,OVC OVC///CB,0.00,WUHU216DAVISVP2,2013-08-26 06:51:00,
2013-08-26 02:56:00,65.7,61.2,30.18,WSW,242,2.0,3.0,85,0.00,,OVC OVC///CB,0.00,WUHU216DAVISVP2,2013-08-26 06:56:00,
2013-08-26 03:01:00,65.7,61.2,30.18,SW,229,0.0,3.0,85,0.00,,OVC OVC///CB,0.00,WUHU216DAVISVP2,2013-08-26 07:01:00,
2013-08-26 03:06:00,65.5,61.0,30.18,SW,229,0.0,3.0,85,0.00,,OVC OVC///CB,0.00,WUHU216DAVISVP2,2013-08-26 07:06:00,
2013-08-26 03:11:00,65.4,61.2,30.18,SSW,195,2.0,3.0,86,0.00,,OVC OVC///CB,0.00,WUHU216DAVISVP2,2013-08-26 07:11:00,
2013-08-26 03:16:00,65.3,61.1,30.18,SW,215,0.0,2.0,86,0.00,,OVC OVC///CB,0.00,WUHU216DAVISVP2,2013-08-26 07:16:00,
2013-08-26 03:21:00,65.2,61.0,30.18,SW,224,0.0,2.0,86,0.00,,OVC OVC///CB,0.00,WUHU216DAVISVP2,2013-08-26 07:21:00,
2013-08-26 03:26:00,65.1,60.9,30.18,SW,224,0.0,2.0,86,0.00,,OVC OVC///CB,0.00,WUHU216DAVISVP2,2013-08-26 07:26:00,
2013-08-26 03:31:00,64.8,60.6,30.18,SW,228,0.0,2.0,86,0.00,,OVC OVC///CB,0.00,WUHU216DAVISVP2,2013-08-26 07:31:00,
2013-08-26 03:36:00,64.7,60.5,30.18,SSE,167,0.0,3.0,86,0.00,,OVC OVC///CB,0.00,WUHU216DAVISVP2,2013-08-26 07:36:00,
2013-08-26 03:41:00,64.7,60.5,30.18,SSE,167,0.0,3.0,86,0.00,,OVC OVC///CB,0.00,WUHU216DAVISVP2,2013-08-26 07:41:00,
2013-08-26 03:46:00,64.7,60.5,30.18,SSW,204,1.0,3.0,86,0.00,,OVC OVC///CB,0.00,WUHU216DAVISVP2,2013-08-26 07:46:00,
2013-08-26 03:51:00,64.7,60.5,30.18,SSW,204,0.0,3.0,86,0.00,,OVC OVC///CB,0.00,WUHU216DAVISVP2,2013-08-26 07:51:00,
2013-08-26 03:56:00,64.7,60.5,30.18,SSW,204,0.0,2.0,86,0.00,,OVC OVC///CB,0.00,WUHU216DAVISVP2,2013-08-26 07:56:00,
2013-08-26 04:01:00,64.7,60.5,30.18,SSW,204,0.0,2.0,86,0.00,,OVC OVC///CB,0.00,WUHU216DAVISVP2,2013-08-26 08:01:00,
2013-08-26 04:06:00,64.6,60.5,30.17,SSW,204,0.0,1.0,86,0.00,,OVC OVC///CB,0.00,WUHU216DAVISVP2,2013-08-26 08:06:00,
2013-08-26 04:11:00,64.5,60.4,30.18,SSW,203,0.0,1.0,86,0.00,,OVC OVC///CB,0.00,WUHU216DAVISVP2,2013-08-26 08:11:00,
2013-08-26 04:16:00,64.6,60.1,30.17,SSW,203,0.0,1.0,85,0.00,,OVC OVC///CB,0.00,WUHU216DAVISVP2,2013-08-26 08:16:00,
2013-08-26 04:21:00,64.5,60.4,30.17,SSW,203,0.0,1.0,86,0.00,,OVC OVC///CB,0.00,WUHU216DAVISVP2,2013-08-26 08:21:00,
2013-08-26 04:26:00,64.4,60.3,30.17,SSW,203,0.0,1.0,86,0.00,,OVC OVC///CB,0.00,WUHU216DAVISVP2,2013-08-26 08:26:00,
2013-08-26 04:31:00,64.3,60.2,30.17,SW,215,0.0,1.0,86,0.00,,OVC OVC///CB,0.00,WUHU216DAVISVP2,2013-08-26 08:31:00,
2013-08-26 04:36:00,64.3,60.2,30.17,SW,217,0.0,1.0,86,0.00,,OVC OVC///CB,0.00,WUHU216DAVISVP2,2013-08-26 08:36:00,
2013-08-26 04:41:00,64.2,60.1,30.17,SW,226,0.0,2.0,86,0.00,,OVC OVC///CB,0.00,WUHU216DAVISVP2,2013-08-26 08:41:00,
2013-08-26 04:46:00,64.2,59.7,30.17,SSW,205,2.0,2.0,85,0.00,,OVC OVC///CB,0.00,WUHU216DAVISVP2,2013-08-26 08:46:00,
2013-08-26 04:51:00,64.4,59.9,30.17,SSW,204,1.0,2.0,85,0.00,,OVC OVC///CB,0.00,WUHU216DAVISVP2,2013-08-26 08:51:00,
2013-08-26 04:56:00,64.5,59.7,30.17,SSW,199,0.0,2.0,84,0.00,,OVC OVC///CB,0.00,WUHU216DAVISVP2,2013-08-26 08:56:00,
2013-08-26 05:01:00,64.6,59.8,30.17,South,188,1.0,2.0,84,0.00,,OVC OVC///CB,0.00,WUHU216DAVISVP2,2013-08-26 09:01:00,
2013-08-26 05:06:00,64.6,59.8,30.17,SSW,203,0.0,3.0,84,0.00,,OVC OVC///CB,0.00,WUHU216DAVISVP2,2013-08-26 09:06:00,
2013-08-26 05:11:00,64.6,59.8,30.17,SSW,203,1.0,3.0,84,0.00,,OVC OVC///CB,0.00,WUHU216DAVISVP2,2013-08-26 09:11:00,
2013-08-26 05:16:00,64.6,59.8,30.17,SSW,203,0.0,3.0,84,0.00,,OVC OVC///CB,0.00,WUHU216DAVISVP2,2013-08-26 09:16:00,
2013-08-26 05:21:00,64.6,59.8,30.17,SW,214,0.0,3.0,84,0.00,,OVC OVC///CB,0.00,WUHU216DAVISVP2,2013-08-26 09:21:00,
2013-08-26 05:26:00,64.5,59.7,30.17,SW,224,0.0,2.0,84,0.00,,OVC OVC///CB,0.00,WUHU216DAVISVP2,2013-08-26 09:26:00,
2013-08-26 05:31:00,64.5,59.7,30.17,SW,228,0.0,2.0,84,0.00,,OVC OVC///CB,0.00,WUHU216DAVISVP2,2013-08-26 09:31:00,
2013-08-26 05:36:00,64.4,59.6,30.17,SW,228,0.0,2.0,84,0.00,,OVC OVC///CB,0.00,WUHU216DAVISVP2,2013-08-26 09:36:00,
2013-08-26 05:41:00,64.1,59.6,30.17,SW,228,0.0,2.0,85,0.00,,OVC OVC///CB,0.00,WUHU216DAVISVP2,2013-08-26 09:41:00,
2013-08-26 05:46:00,63.8,59.3,30.17,SW,228,0.0,1.0,85,0.00,,OVC OVC///CB,0.00,WUHU216DAVISVP2,2013-08-26 09:46:00,
2013-08-26 05:51:00,63.5,59.4,30.18,SW,228,0.0,0.0,86,0.00,,OVC OVC///CB,0.00,WUHU216DAVISVP2,2013-08-26 09:51:00,
2013-08-26 05:56:00,63.2,59.4,30.18,SW,227,0.0,0.0,87,0.00,,OVC OVC///CB,0.00,WUHU216DAVISVP2,2013-08-26 09:56:00,
2013-08-26 06:01:00,62.8,59.3,30.18,SW,228,0.0,0.0,88,0.00,,OVC OVC///CB,0.00,WUHU216DAVISVP2,2013-08-26 10:01:00,
2013-08-26 06:06:00,62.5,59.0,30.18,SW,228,0.0,0.0,88,0.00,,OVC OVC///CB,0.00,WUHU216DAVISVP2,2013-08-26 10:06:00,
2013-08-26 06:11:00,62.3,59.1,30.18,SW,227,0.0,0.0,89,0.00,,OVC OVC///CB,0.00,WUHU216DAVISVP2,2013-08-26 10:11:00,
2013-08-26 06:16:00,62.0,59.1,30.18,SW,227,0.0,0.0,90,0.00,,OVC OVC///CB,0.00,WUHU216DAVISVP2,2013-08-26 10:16:00,
2013-08-26 06:21:00,61.7,59.1,30.18,SW,228,0.0,0.0,91,0.00,,OVC OVC///CB,0.00,WUHU216DAVISVP2,2013-08-26 10:21:00,
2013-08-26 06:26:00,61.7,59.1,30.18,South,170,0.0,1.0,91,0.00,,OVC OVC///CB,0.00,WUHU216DAVISVP2,2013-08-26 10:26:00,
2013-08-26 06:31:00,61.6,59.0,30.18,South,170,0.0,1.0,91,0.00,,OVC OVC///CB,0.00,WUHU216DAVISVP2,2013-08-26 10:31:00,
2013-08-26 06:36:00,61.3,58.7,30.18,South,171,0.0,1.0,91,0.00,,OVC OVC///CB,0.00,WUHU216DAVISVP2,2013-08-26 10:36:00,
2013-08-26 06:41:00,61.1,58.8,30.18,South,171,0.0,1.0,92,0.00,,OVC OVC///CB,0.00,WUHU216DAVISVP2,2013-08-26 10:41:00,
2013-08-26 06:46:00,61.1,58.8,30.18,South,171,0.0,0.0,92,0.00,,OVC OVC///CB,0.00,WUHU216DAVISVP2,2013-08-26 10:46:00,
2013-08-26 06:51:00,60.9,58.9,30.18,South,171,0.0,0.0,93,0.00,,OVC OVC///CB,0.00,WUHU216DAVISVP2,2013-08-26 10:51:00,
2013-08-26 06:56:00,60.8,58.8,30.18,South,170,0.0,0.0,93,0.00,,OVC OVC///CB,0.00,WUHU216DAVISVP2,2013-08-26 10:56:00,
2013-08-26 07:01:00,60.8,58.8,30.18,South,171,0.0,0.0,93,0.00,,OVC OVC///CB,0.00,WUHU216DAVISVP2,2013-08-26 11:01:00,
2013-08-26 07:06:00,60.9,58.9,30.18,South,170,0.0,0.0,93,0.00,,OVC OVC///CB,0.00,WUHU216DAVISVP2,2013-08-26 11:06:00,
2013-08-26 07:11:00,61.1,59.1,30.19,South,171,0.0,0.0,93,0.00,,OVC OVC///CB,0.00,WUHU216DAVISVP2,2013-08-26 11:11:00,
2013-08-26 07:16:00,61.7,59.7,30.19,SW,217,0.0,3.0,93,0.00,,OVC OVC///CB,0.00,WUHU216DAVISVP2,2013-08-26 11:16:00,
2013-08-26 07:21:00,62.4,59.8,30.19,SSW,212,2.0,3.0,91,0.00,,OVC OVC///CB,0.00,WUHU216DAVISVP2,2013-08-26 11:21:00,
2013-08-26 07:26:00,63.1,59.9,30.19,SW,215,1.0,4.0,89,0.00,,OVC OVC///CB,0.00,WUHU216DAVISVP2,2013-08-26 11:26:00,
2013-08-26 07:31:00,63.8,60.3,30.19,SW,231,0.0,4.0,88,0.00,,OVC OVC///CB,0.00,WUHU216DAVISVP2,2013-08-26 11:31:00,
2013-08-26 07:36:00,64.4,60.6,30.19,WSW,252,1.0,5.0,87,0.00,,OVC OVC///CB,0.00,WUHU216DAVISVP2,2013-08-26 11:36:00,
2013-08-26 07:41:00,64.8,60.6,30.19,SW,225,1.0,5.0,86,0.00,,OVC OVC///CB,0.00,WUHU216DAVISVP2,2013-08-26 11:41:00,
2013-08-26 07:46:00,65.1,60.6,30.19,SW,236,1.0,5.0,85,0.00,,OVC OVC///CB,0.00,WUHU216DAVISVP2,2013-08-26 11:46:00,
2013-08-26 07:51:00,65.3,60.8,30.19,SW,217,2.0,7.0,85,0.00,,OVC OVC///CB,0.00,WUHU216DAVISVP2,2013-08-26 11:51:00,
2013-08-26 07:56:00,65.6,60.8,30.19,SSW,208,5.0,7.0,84,0.00,,OVC OVC///CB,0.00,WUHU216DAVISVP2,2013-08-26 11:56:00,
2013-08-26 08:01:00,65.9,61.1,30.19,SW,224,1.0,7.0,84,0.00,,OVC OVC///CB,0.00,WUHU216DAVISVP2,2013-08-26 12:01:00,
2013-08-26 08:06:00,66.2,61.4,30.19,SW,219,1.0,7.0,84,0.00,,OVC OVC///CB,0.00,WUHU216DAVISVP2,2013-08-26 12:06:00,
2013-08-26 08:11:00,66.4,61.3,30.19,SW,215,2.0,6.0,83,0.00,,OVC OVC///CB,0.00,WUHU216DAVISVP2,2013-08-26 12:11:00,
2013-08-26 08:16:00,66.6,61.4,30.19,SW,228,3.0,7.0,83,0.00,,OVC OVC///CB,0.00,WUHU216DAVISVP2,2013-08-26 12:16:00,
2013-08-26 08:21:00,66.9,61.7,30.18,SSW,210,1.0,7.0,83,0.00,,OVC OVC///CB,0.00,WUHU216DAVISVP2,2013-08-26 12:21:00,
2013-08-26 08:26:00,67.2,61.7,30.18,SW,228,4.0,6.0,82,0.00,,OVC OVC///CB,0.00,WUHU216DAVISVP2,2013-08-26 12:26:00,
2013-08-26 08:31:00,67.4,61.9,30.18,WSW,245,2.0,6.0,82,0.00,,OVC OVC///CB,0.00,WUHU216DAVISVP2,2013-08-26 12:31:00,
2013-08-26 08:36:00,67.6,62.1,30.18,SW,233,5.0,9.0,82,0.00,,OVC OVC///CB,0.00,WUHU216DAVISVP2,2013-08-26 12:36:00,
2013-08-26 08:41:00,67.8,62.3,30.18,West,273,1.0,9.0,82,0.00,,OVC OVC///CB,0.00,WUHU216DAVISVP2,2013-08-26 12:41:00,
2013-08-26 08:46:00,68.0,62.5,30.18,WSW,243,2.0,9.0,82,0.00,,OVC OVC///CB,0.00,WUHU216DAVISVP2,2013-08-26 12:46:00,
2013-08-26 08:51:00,68.2,62.7,30.18,SSW,210,0.0,9.0,82,0.00,,OVC OVC///CB,0.00,WUHU216DAVISVP2,2013-08-26 12:51:00,
2013-08-26 08:56:00,68.8,62.9,30.18,SW,229,0.0,6.0,81,0.00,,OVC OVC///CB,0.00,WUHU216DAVISVP2,2013-08-26 12:56:00,
2013-08-26 09:01:00,69.4,63.2,30.18,West,264,2.0,5.0,80,0.00,,OVC OVC///CB,0.00,WUHU216DAVISVP2,2013-08-26 13:01:00,
2013-08-26 09:06:00,69.6,63.4,30.18,West,276,2.0,5.0,80,0.00,,OVC OVC///CB,0.00,WUHU216DAVISVP2,2013-08-26 13:06:00,
2013-08-26 09:11:00,69.9,63.7,30.18,SW,228,1.0,5.0,80,0.00,,OVC OVC///CB,0.00,WUHU216DAVISVP2,2013-08-26 13:11:00,
2013-08-26 09:16:00,70.1,63.9,30.18,SSW,210,2.0,5.0,80,0.00,,OVC OVC///CB,0.00,WUHU216DAVISVP2,2013-08-26 13:16:00,
2013-08-26 09:21:00,70.4,63.8,30.18,SSW,200,2.0,5.0,79,0.00,,OVC OVC///CB,0.00,WUHU216DAVISVP2,2013-08-26 13:21:00,
2013-08-26 09:26:00,70.6,64.0,30.18,SSW,197,2.0,5.0,79,0.00,,OVC OVC///CB,0.00,WUHU216DAVISVP2,2013-08-26 13:26:00,
2013-08-26 09:31:00,71.0,64.4,30.18,WSW,246,3.0,5.0,79,0.00,,OVC OVC///CB,0.00,WUHU216DAVISVP2,2013-08-26 13:31:00,
2013-08-26 09:36:00,71.5,64.5,30.17,WSW,250,3.0,6.0,78,0.00,,OVC OVC///CB,0.00,WUHU216DAVISVP2,2013-08-26 13:36:00,
2013-08-26 09:41:00,71.6,64.6,30.17,SW,232,2.0,8.0,78,0.00,,OVC OVC///CB,0.00,WUHU216DAVISVP2,2013-08-26 13:41:00,
2013-08-26 09:46:00,72.1,65.1,30.17,WSW,255,5.0,8.0,78,0.00,,OVC OVC///CB,0.00,WUHU216DAVISVP2,2013-08-26 13:46:00,
2013-08-26 09:51:00,72.5,65.1,30.17,WSW,247,2.0,7.0,77,0.00,,OVC OVC///CB,0.00,WUHU216DAVISVP2,2013-08-26 13:51:00,
2013-08-26 09:56:00,72.9,65.2,30.17,West,274,3.0,7.0,76,0.00,,OVC OVC///CB,0.00,WUHU216DAVISVP2,2013-08-26 13:56:00,
2013-08-26 10:01:00,73.3,65.6,30.17,NW,304,1.0,7.0,76,0.00,,OVC OVC///CB,0.00,WUHU216DAVISVP2,2013-08-26 14:01:00,
2013-08-26 10:06:00,73.9,65.8,30.17,SW,233,3.0,7.0,75,0.00,,OVC OVC///CB,0.00,WUHU216DAVISVP2,2013-08-26 14:06:00,
2013-08-26 10:11:00,74.1,66.0,30.17,SW,232,4.0,8.0,75,0.00,,OVC OVC///CB,0.00,WUHU216DAVISVP2,2013-08-26 14:11:00,
2013-08-26 10:16:00,74.4,65.9,30.17,West,263,0.0,8.0,74,0.00,,OVC OVC///CB,0.00,WUHU216DAVISVP2,2013-08-26 14:16:00,
2013-08-26 10:21:00,75.0,66.1,30.17,SW,218,4.0,7.0,73,0.00,,OVC OVC///CB,0.00,WUHU216DAVISVP2,2013-08-26 14:21:00,
2013-08-26 10:26:00,75.4,66.1,30.17,SW,228,0.0,8.0,72,0.00,,OVC OVC///CB,0.00,WUHU216DAVISVP2,2013-08-26 14:26:00,
2013-08-26 10:31:00,75.9,66.2,30.17,SW,221,0.0,8.0,71,0.00,,OVC OVC///CB,0.00,WUHU216DAVISVP2,2013-08-26 14:31:00,
2013-08-26 10:36:00,76.3,65.8,30.17,SW,224,0.0,8.0,69,0.00,,OVC OVC///CB,0.00,WUHU216DAVISVP2,2013-08-26 14:36:00,
2013-08-26 10:41:00,76.8,66.6,30.17,WSW,250,3.0,7.0,70,0.00,,OVC OVC///CB,0.00,WUHU216DAVISVP2,2013-08-26 14:41:00,
2013-08-26 10:46:00,77.4,66.8,30.17,WSW,242,3.0,7.0,69,0.00,,OVC OVC///CB,0.00,WUHU216DAVISVP2,2013-08-26 14:46:00,
2013-08-26 10:51:00,77.4,66.8,30.17,WSW,239,2.0,8.0,69,0.00,,OVC OVC///CB,0.00,WUHU216DAVISVP2,2013-08-26 14:51:00,
2013-08-26 10:56:00,77.5,65.6,30.17,WNW,290,0.0,8.0,66,0.00,,OVC OVC///CB,0.00,WUHU216DAVISVP2,2013-08-26 14:56:00,
2013-08-26 11:01:00,77.5,66.1,30.17,SW,224,3.0,7.0,67,0.00,,OVC OVC///CB,0.00,WUHU216DAVISVP2,2013-08-26 15:01:00,
2013-08-26 11:06:00,77.5,66.5,30.17,WSW,250,3.0,7.0,68,0.00,,OVC OVC///CB,0.00,WUHU216DAVISVP2,2013-08-26 15:06:00,
2013-08-26 11:11:00,77.9,66.0,30.16,West,263,4.0,7.0,66,0.00,,OVC OVC///CB,0.00,WUHU216DAVISVP2,2013-08-26 15:11:00,
2013-08-26 11:16:00,78.1,65.3,30.17,SW,229,1.0,9.0,64,0.00,,OVC OVC///CB,0.00,WUHU216DAVISVP2,2013-08-26 15:16:00,
2013-08-26 11:21:00,78.6,66.3,30.17,SW,224,3.0,9.0,65,0.00,,OVC OVC///CB,0.00,WUHU216DAVISVP2,2013-08-26 15:21:00,
2013-08-26 11:26:00,79.0,66.2,30.17,West,260,3.0,9.0,64,0.00,,OVC OVC///CB,0.00,WUHU216DAVISVP2,2013-08-26 15:26:00,
2013-08-26 11:31:00,79.2,66.8,30.17,WSW,243,4.0,8.0,65,0.00,,OVC OVC///CB,0.00,WUHU216DAVISVP2,2013-08-26 15:31:00,
2013-08-26 11:36:00,79.8,67.0,30.17,North,360,0.0,6.0,64,0.00,,OVC OVC///CB,0.00,WUHU216DAVISVP2,2013-08-26 15:36:00,
2013-08-26 11:41:00,80.2,66.9,30.17,WSW,243,9.0,9.0,63,0.00,,OVC OVC///CB,0.00,WUHU216DAVISVP2,2013-08-26 15:41:00,
2013-08-26 11:46:00,80.6,66.8,30.17,WSW,240,0.0,10.0,62,0.00,,OVC OVC///CB,0.00,WUHU216DAVISVP2,2013-08-26 15:46:00,
2013-08-26 11:51:00,80.7,66.0,30.16,West,267,6.0,10.0,60,0.00,,OVC OVC///CB,0.00,WUHU216DAVISVP2,2013-08-26 15:51:00,
2013-08-26 11:56:00,80.7,66.0,30.16,West,259,6.0,9.0,60,0.00,,OVC OVC///CB,0.00,WUHU216DAVISVP2,2013-08-26 15:56:00,
2013-08-26 12:01:00,81.0,66.2,30.16,WSW,240,1.0,11.0,60,0.00,,OVC OVC///CB,0.00,WUHU216DAVISVP2,2013-08-26 16:01:00,
2013-08-26 12:06:00,80.9,65.2,30.16,SW,227,6.0,15.0,58,0.00,,OVC OVC///CB,0.00,WUHU216DAVISVP2,2013-08-26 16:06:00,
2013-08-26 12:11:00,80.8,65.1,30.15,WNW,287,6.0,15.0,58,0.00,,OVC OVC///CB,0.00,WUHU216DAVISVP2,2013-08-26 16:11:00,
2013-08-26 12:16:00,81.1,65.4,30.15,WNW,300,5.0,14.0,58,0.00,,OVC OVC///CB,0.00,WUHU216DAVISVP2,2013-08-26 16:16:00,
2013-08-26 12:21:00,81.4,66.1,30.14,WSW,246,3.0,14.0,59,0.00,,OVC OVC///CB,0.00,WUHU216DAVISVP2,2013-08-26 16:21:00,
2013-08-26 12:26:00,81.1,65.8,30.14,West,261,2.0,15.0,59,0.00,,OVC OVC///CB,0.00,WUHU216DAVISVP2,2013-08-26 16:26:00,
2013-08-26 12:31:00,81.8,66.5,30.14,WNW,295,2.0,15.0,59,0.00,,OVC OVC///CB,0.00,WUHU216DAVISVP2,2013-08-26 16:31:00,
2013-08-26 12:36:00,82.1,65.8,30.14,WSW,244,4.0,15.0,57,0.00,,OVC OVC///CB,0.00,WUHU216DAVISVP2,2013-08-26 16:36:00,
2013-08-26 12:41:00,82.1,66.3,30.14,WSW,249,0.0,13.0,58,0.00,,OVC OVC///CB,0.00,WUHU216DAVISVP2,2013-08-26 16:41:00,
2013-08-26 12:46:00,82.3,67.0,30.13,WNW,286,7.0,9.0,59,0.00,,OVC OVC///CB,0.00,WUHU216DAVISVP2,2013-08-26 16:46:00,
2013-08-26 12:51:00,82.3,66.0,30.13,SW,233,2.0,9.0,57,0.00,,OVC OVC///CB,0.00,WUHU216DAVISVP2,2013-08-26 16:51:00,
2013-08-26 12:56:00,82.6,66.8,30.12,SW,223,5.0,12.0,58,0.00,,OVC OVC///CB,0.00,WUHU216DAVISVP2,2013-08-26 16:56:00,
2013-08-26 13:01:00,82.4,66.6,30.12,WSW,243,2.0,12.0,58,0.00,,OVC OVC///CB,0.00,WUHU216DAVISVP2,2013-08-26 17:01:00,
2013-08-26 13:06:00,82.7,66.4,30.12,West,279,3.0,12.0,57,0.00,,OVC OVC///CB,0.00,WUHU216DAVISVP2,2013-08-26 17:06:00,
2013-08-26 13:11:00,82.5,67.2,30.12,SW,233,1.0,12.0,59,0.00,,OVC OVC///CB,0.00,WUHU216DAVISVP2,2013-08-26 17:11:00,
2013-08-26 13:16:00,82.6,67.3,30.11,WSW,240,2.0,11.0,59,0.00,,OVC OVC///CB,0.00,WUHU216DAVISVP2,2013-08-26 17:16:00,
2013-08-26 13:21:00,82.8,67.5,30.11,SW,232,5.0,11.0,59,0.00,,OVC OVC///CB,0.00,WUHU216DAVISVP2,2013-08-26 17:21:00,
2013-08-26 13:26:00,83.0,66.6,30.11,WSW,257,7.0,11.0,57,0.00,,OVC OVC///CB,0.00,WUHU216DAVISVP2,2013-08-26 17:26:00,
2013-08-26 13:31:00,82.7,65.8,30.10,SW,224,3.0,11.0,56,0.00,,OVC OVC///CB,0.00,WUHU216DAVISVP2,2013-08-26 17:31:00,
2013-08-26 13:36:00,83.2,67.3,30.10,WSW,243,1.0,10.0,58,0.00,,OVC OVC///CB,0.00,WUHU216DAVISVP2,2013-08-26 17:36:00,
2013-08-26 13:41:00,83.5,67.1,30.10,WSW,258,7.0,12.0,57,0.00,,OVC OVC///CB,0.00,WUHU216DAVISVP2,2013-08-26 17:41:00,
2013-08-26 13:46:00,83.2,65.8,30.10,WNW,290,5.0,12.0,55,0.00,,OVC OVC///CB,0.00,WUHU216DAVISVP2,2013-08-26 17:46:00,
2013-08-26 13:51:00,82.9,66.5,30.10,WNW,283,4.0,12.0,57,0.00,,OVC OVC///CB,0.00,WUHU216DAVISVP2,2013-08-26 17:51:00,
2013-08-26 13:56:00,82.8,67.0,30.10,WSW,250,7.0,11.0,58,0.00,,OVC OVC///CB,0.00,WUHU216DAVISVP2,2013-08-26 17:56:00,
2013-08-26 14:01:00,82.7,66.4,30.10,SW,233,0.0,11.0,57,0.00,,OVC OVC///CB,0.00,WUHU216DAVISVP2,2013-08-26 18:01:00,
2013-08-26 14:06:00,83.0,67.6,30.10,West,277,2.0,10.0,59,0.00,,OVC OVC///CB,0.00,WUHU216DAVISVP2,2013-08-26 18:06:00,
2013-08-26 14:11:00,83.4,67.0,30.10,SW,236,8.0,10.0,57,0.00,,OVC OVC///CB,0.00,WUHU216DAVISVP2,2013-08-26 18:11:00,
2013-08-26 14:16:00,83.2,66.8,30.09,WSW,256,3.0,11.0,57,0.00,,OVC OVC///CB,0.00,WUHU216DAVISVP2,2013-08-26 18:16:00,
2013-08-26 14:21:00,83.6,67.2,30.09,West,278,3.0,11.0,57,0.00,,OVC OVC///CB,0.00,WUHU216DAVISVP2,2013-08-26 18:21:00,
2013-08-26 14:26:00,83.5,67.1,30.09,West,280,2.0,10.0,57,0.00,,OVC OVC///CB,0.00,WUHU216DAVISVP2,2013-08-26 18:26:00,
2013-08-26 14:31:00,83.8,67.9,30.09,WSW,245,3.0,10.0,58,0.00,,OVC OVC///CB,0.00,WUHU216DAVISVP2,2013-08-26 18:31:00,
2013-08-26 14:36:00,83.2,67.3,30.09,SW,229,2.0,10.0,58,0.00,,OVC OVC///CB,0.00,WUHU216DAVISVP2,2013-08-26 18:36:00,
2013-08-26 14:41:00,83.0,67.6,30.09,WSW,238,8.0,10.0,59,0.00,,OVC OVC///CB,0.00,WUHU216DAVISVP2,2013-08-26 18:41:00,
2013-08-26 14:46:00,82.7,67.4,30.08,SW,222,1.0,11.0,59,0.00,,OVC OVC///CB,0.00,WUHU216DAVISVP2,2013-08-26 18:46:00,
2013-08-26 14:51:00,82.7,67.4,30.08,WNW,297,5.0,11.0,59,0.00,,OVC OVC///CB,0.00,WUHU216DAVISVP2,2013-08-26 18:51:00,
2013-08-26 14:56:00,82.8,67.5,30.08,WSW,248,4.0,11.0,59,0.00,,OVC OVC///CB,0.00,WUHU216DAVISVP2,2013-08-26 18:56:00,
2013-08-26 15:01:00,82.7,67.8,30.07,SSW,193,2.0,9.0,60,0.00,,OVC OVC///CB,0.00,WUHU216DAVISVP2,2013-08-26 19:01:00,
2013-08-26 15:06:00,82.8,67.5,30.06,SSW,201,7.0,12.0,59,0.00,,OVC OVC///CB,0.00,WUHU216DAVISVP2,2013-08-26 19:06:00,
2013-08-26 15:11:00,82.8,67.5,30.06,SW,221,2.0,12.0,59,0.00,,OVC OVC///CB,0.00,WUHU216DAVISVP2,2013-08-26 19:11:00,
2013-08-26 15:16:00,83.0,67.6,30.06,SW,222,0.0,12.0,59,0.00,,OVC OVC///CB,0.00,WUHU216DAVISVP2,2013-08-26 19:16:00,
2013-08-26 15:21:00,83.2,67.8,30.06,SSW,210,5.0,11.0,59,0.00,,OVC OVC///CB,0.00,WUHU216DAVISVP2,2013-08-26 19:21:00,
2013-08-26 15:26:00,83.5,67.6,30.06,WSW,238,8.0,11.0,58,0.00,,OVC OVC///CB,0.00,WUHU216DAVISVP2,2013-08-26 19:26:00,
2013-08-26 15:31:00,83.4,68.0,30.05,SW,232,1.0,13.0,59,0.00,,OVC OVC///CB,0.00,WUHU216DAVISVP2,2013-08-26 19:31:00,
2013-08-26 15:36:00,83.7,67.8,30.05,WSW,246,5.0,13.0,58,0.00,,OVC OVC///CB,0.00,WUHU216DAVISVP2,2013-08-26 19:36:00,
2013-08-26 15:41:00,83.9,68.0,30.05,WSW,258,5.0,12.0,58,0.00,,OVC OVC///CB,0.00,WUHU216DAVISVP2,2013-08-26 19:41:00,
2013-08-26 15:46:00,84.2,69.3,30.05,West,269,6.0,12.0,60,0.00,,OVC OVC///CB,0.00,WUHU216DAVISVP2,2013-08-26 19:46:00,
2013-08-26 15:51:00,84.7,69.7,30.04,SW,228,1.0,11.0,60,0.00,,OVC OVC///CB,0.00,WUHU216DAVISVP2,2013-08-26 19:51:00,
2013-08-26 15:56:00,84.9,68.9,30.04,SSW,201,6.0,12.0,58,0.00,,OVC OVC///CB,0.00,WUHU216DAVISVP2,2013-08-26 19:56:00,
2013-08-26 16:01:00,84.6,68.6,30.04,WSW,241,5.0,12.0,58,0.00,,OVC OVC///CB,0.00,WUHU216DAVISVP2,2013-08-26 20:01:00,
2013-08-26 16:06:00,84.0,69.1,30.04,WSW,238,4.0,11.0,60,0.00,,OVC OVC///CB,0.00,WUHU216DAVISVP2,2013-08-26 20:06:00,
2013-08-26 16:11:00,83.9,69.0,30.04,SW,221,4.0,11.0,60,0.00,,OVC OVC///CB,0.00,WUHU216DAVISVP2,2013-08-26 20:11:00,
2013-08-26 16:16:00,83.8,68.9,30.03,WSW,238,6.0,11.0,60,0.00,,OVC OVC///CB,0.00,WUHU216DAVISVP2,2013-08-26 20:16:00,
2013-08-26 16:21:00,83.8,69.4,30.03,SW,219,6.0,11.0,61,0.00,,OVC OVC///CB,0.00,WUHU216DAVISVP2,2013-08-26 20:21:00,
2013-08-26 16:26:00,84.1,68.7,30.03,South,174,4.0,11.0,59,0.00,,OVC OVC///CB,0.00,WUHU216DAVISVP2,2013-08-26 20:26:00,
2013-08-26 16:31:00,84.1,69.2,30.03,WSW,238,4.0,10.0,60,0.00,,OVC OVC///CB,0.00,WUHU216DAVISVP2,2013-08-26 20:31:00,
2013-08-26 16:36:00,84.3,70.3,30.03,SW,226,7.0,9.0,62,0.00,,OVC OVC///CB,0.00,WUHU216DAVISVP2,2013-08-26 20:36:00,
2013-08-26 16:41:00,84.1,69.2,30.03,SSW,210,5.0,11.0,60,0.00,,OVC OVC///CB,0.00,WUHU216DAVISVP2,2013-08-26 20:41:00,
2013-08-26 16:46:00,84.0,69.6,30.03,WSW,249,4.0,11.0,61,0.00,,OVC OVC///CB,0.00,WUHU216DAVISVP2,2013-08-26 20:46:00,
2013-08-26 16:51:00,84.2,69.7,30.03,SSW,212,8.0,12.0,61,0.00,,OVC OVC///CB,0.00,WUHU216DAVISVP2,2013-08-26 20:51:00,
2013-08-26 16:56:00,84.0,69.6,30.03,West,274,3.0,13.0,61,0.00,,OVC OVC///CB,0.00,WUHU216DAVISVP2,2013-08-26 20:56:00,
2013-08-26 17:01:00,83.9,69.9,30.03,SW,236,3.0,13.0,62,0.00,,OVC OVC///CB,0.00,WUHU216DAVISVP2,2013-08-26 21:01:00,
2013-08-26 17:06:00,83.4,69.5,30.03,West,269,4.0,14.0,62,0.00,,OVC OVC///CB,0.00,WUHU216DAVISVP2,2013-08-26 21:06:00,
2013-08-26 17:11:00,83.0,69.6,30.03,WSW,240,1.0,14.0,63,0.00,,OVC OVC///CB,0.00,WUHU216DAVISVP2,2013-08-26 21:11:00,
2013-08-26 17:16:00,82.7,69.3,30.02,SW,233,3.0,13.0,63,0.00,,OVC OVC///CB,0.00,WUHU216DAVISVP2,2013-08-26 21:16:00,
2013-08-26 17:21:00,82.8,68.9,30.02,WSW,239,7.0,13.0,62,0.00,,OVC OVC///CB,0.00,WUHU216DAVISVP2,2013-08-26 21:21:00,
2013-08-26 17:26:00,82.5,69.1,30.02,WSW,241,11.0,12.0,63,0.00,,OVC OVC///CB,0.00,WUHU216DAVISVP2,2013-08-26 21:26:00,
2013-08-26 17:31:00,82.5,69.5,30.02,WSW,239,1.0,12.0,64,0.00,,OVC OVC///CB,0.00,WUHU216DAVISVP2,2013-08-26 21:31:00,
2013-08-26 17:36:00,82.8,69.4,30.01,West,260,5.0,14.0,63,0.00,,OVC OVC///CB,0.00,WUHU216DAVISVP2,2013-08-26 21:36:00,
2013-08-26 17:41:00,82.9,69.9,30.01,WSW,243,6.0,14.0,64,0.00,,OVC OVC///CB,0.00,WUHU216DAVISVP2,2013-08-26 21:41:00,
2013-08-26 17:46:00,83.4,70.4,30.01,SW,228,4.0,13.0,64,0.00,,OVC OVC///CB,0.00,WUHU216DAVISVP2,2013-08-26 21:46:00,
2013-08-26 17:51:00,83.7,70.7,30.01,SW,226,4.0,13.0,64,0.00,,OVC OVC///CB,0.00,WUHU216DAVISVP2,2013-08-26 21:51:00,
2013-08-26 17:56:00,83.9,70.9,30.01,WSW,258,5.0,10.0,64,0.00,,OVC OVC///CB,0.00,WUHU216DAVISVP2,2013-08-26 21:56:00,
2013-08-26 18:01:00,83.8,71.2,30.02,SW,229,3.0,8.0,65,0.00,,OVC OVC///CB,0.00,WUHU216DAVISVP2,2013-08-26 22:01:00,
2013-08-26 18:06:00,83.7,71.1,30.01,SW,231,8.0,8.0,65,0.00,,OVC OVC///CB,0.00,WUHU216DAVISVP2,2013-08-26 22:06:00,
2013-08-26 18:11:00,83.2,71.5,30.01,SW,225,4.0,11.0,67,0.00,,OVC OVC///CB,0.00,WUHU216DAVISVP2,2013-08-26 22:11:00,
2013-08-26 18:16:00,82.7,71.5,30.01,West,262,3.0,11.0,68,0.00,,OVC OVC///CB,0.00,WUHU216DAVISVP2,2013-08-26 22:16:00,
2013-08-26 18:21:00,82.4,71.2,30.01,WSW,245,6.0,11.0,68,0.00,,OVC OVC///CB,0.00,WUHU216DAVISVP2,2013-08-26 22:21:00,
2013-08-26 18:26:00,82.5,71.3,30.01,SW,228,0.0,11.0,68,0.00,,OVC OVC///CB,0.00,WUHU216DAVISVP2,2013-08-26 22:26:00,
2013-08-26 18:31:00,82.6,71.4,30.01,SW,229,5.0,11.0,68,0.00,,OVC OVC///CB,0.00,WUHU216DAVISVP2,2013-08-26 22:31:00,
2013-08-26 18:36:00,82.3,71.5,30.01,SW,233,2.0,9.0,69,0.00,,OVC OVC///CB,0.00,WUHU216DAVISVP2,2013-08-26 22:36:00,
2013-08-26 18:41:00,82.2,71.4,30.01,WSW,252,1.0,7.0,69,0.00,,OVC OVC///CB,0.00,WUHU216DAVISVP2,2013-08-26 22:41:00,
2013-08-26 18:46:00,82.1,71.7,30.01,West,275,0.0,7.0,70,0.00,,OVC OVC///CB,0.00,WUHU216DAVISVP2,2013-08-26 22:46:00,
2013-08-26 18:51:00,81.9,71.6,30.02,WSW,246,2.0,7.0,70,0.00,,OVC OVC///CB,0.00,WUHU216DAVISVP2,2013-08-26 22:51:00,
2013-08-26 18:56:00,81.5,71.6,30.01,WSW,248,3.0,10.0,71,0.00,,OVC OVC///CB,0.00,WUHU216DAVISVP2,2013-08-26 22:56:00,
2013-08-26 19:01:00,81.3,71.8,30.01,West,269,4.0,10.0,72,0.00,,OVC OVC///CB,0.00,WUHU216DAVISVP2,2013-08-26 23:01:00,
2013-08-26 19:06:00,81.1,71.6,30.01,SW,221,0.0,9.0,72,0.00,,OVC OVC///CB,0.00,WUHU216DAVISVP2,2013-08-26 23:06:00,
2013-08-26 19:11:00,81.0,71.5,30.01,WSW,256,1.0,8.0,72,0.00,,OVC OVC///CB,0.00,WUHU216DAVISVP2,2013-08-26 23:11:00,
2013-08-26 19:16:00,80.9,71.4,30.01,SW,218,1.0,8.0,72,0.00,,OVC OVC///CB,0.00,WUHU216DAVISVP2,2013-08-26 23:16:00,
2013-08-26 19:21:00,80.7,71.6,30.00,WSW,245,5.0,8.0,73,0.00,,OVC OVC///CB,0.00,WUHU216DAVISVP2,2013-08-26 23:21:00,
2013-08-26 19:26:00,80.5,71.4,30.00,WSW,238,6.0,8.0,73,0.00,,OVC OVC///CB,0.00,WUHU216DAVISVP2,2013-08-26 23:26:00,
2013-08-26 19:31:00,80.4,71.3,30.01,WSW,239,4.0,8.0,73,0.00,,OVC OVC///CB,0.00,WUHU216DAVISVP2,2013-08-26 23:31:00,
2013-08-26 19:36:00,80.2,71.1,30.01,West,274,2.0,8.0,73,0.00,,OVC OVC///CB,0.00,WUHU216DAVISVP2,2013-08-26 23:36:00,
2013-08-26 19:41:00,79.9,71.2,30.01,WSW,240,3.0,7.0,74,0.00,,OVC OVC///CB,0.00,WUHU216DAVISVP2,2013-08-26 23:41:00,
2013-08-26 19:46:00,79.8,71.1,30.01,SW,235,0.0,8.0,74,0.00,,OVC OVC///CB,0.00,WUHU216DAVISVP2,2013-08-26 23:46:00,
2013-08-26 19:51:00,79.5,71.2,30.01,SW,221,1.0,8.0,75,0.00,,OVC OVC///CB,0.00,WUHU216DAVISVP2,2013-08-26 23:51:00,
2013-08-26 19:56:00,79.4,71.1,30.01,WSW,238,4.0,8.0,75,0.00,,OVC OVC///CB,0.00,WUHU216DAVISVP2,2013-08-26 23:56:00,
2013-08-26 20:01:00,79.2,70.9,30.01,WSW,238,2.0,8.0,75,0.00,,OVC OVC///CB,0.00,WUHU216DAVISVP2,2013-08-27 00:01:00,
2013-08-26 20:06:00,79.1,70.8,30.01,South,169,0.0,5.0,75,0.00,,OVC OVC///CB,0.00,WUHU216DAVISVP2,2013-08-27 00:06:00,
2013-08-26 20:11:00,78.9,71.0,30.01,SW,217,1.0,5.0,76,0.00,,OVC OVC///CB,0.00,WUHU216DAVISVP2,2013-08-27 00:11:00,
2013-08-26 20:16:00,78.8,70.9,30.01,SSW,199,3.0,6.0,76,0.00,,OVC OVC///CB,0.00,WUHU216DAVISVP2,2013-08-27 00:16:00,
2013-08-26 20:21:00,78.9,71.0,30.01,SSW,212,0.0,6.0,76,0.00,,OVC OVC///CB,0.00,WUHU216DAVISVP2,2013-08-27 00:21:00,
2013-08-26 20:26:00,78.7,70.8,30.01,SSW,203,0.0,6.0,76,0.00,,OVC OVC///CB,0.00,WUHU216DAVISVP2,2013-08-27 00:26:00,
2013-08-26 20:31:00,78.5,71.0,30.01,West,260,2.0,5.0,77,0.00,,OVC OVC///CB,0.00,WUHU216DAVISVP2,2013-08-27 00:31:00,
2013-08-26 20:36:00,78.3,70.8,30.01,SW,231,1.0,3.0,77,0.00,,OVC OVC///CB,0.00,WUHU216DAVISVP2,2013-08-27 00:36:00,
2013-08-26 20:41:00,78.2,70.7,30.01,SW,236,0.0,3.0,77,0.00,,OVC OVC///CB,0.00,WUHU216DAVISVP2,2013-08-27 00:41:00,
2013-08-26 20:46:00,78.1,71.0,30.01,SW,224,0.0,4.0,78,0.00,,OVC OVC///CB,0.00,WUHU216DAVISVP2,2013-08-27 00:46:00,
2013-08-26 20:51:00,78.1,71.0,30.01,SW,221,0.0,4.0,78,0.00,,OVC OVC///CB,0.00,WUHU216DAVISVP2,2013-08-27 00:51:00,
2013-08-26 20:56:00,78.0,71.2,30.01,SSW,210,1.0,3.0,79,0.00,,OVC OVC///CB,0.00,WUHU216DAVISVP2,2013-08-27 00:56:00,
2013-08-26 21:01:00,78.0,71.2,30.01,SSW,210,0.0,3.0,79,0.00,,OVC OVC///CB,0.00,WUHU216DAVISVP2,2013-08-27 01:01:00,
2013-08-26 21:06:00,77.9,71.1,30.01,WSW,250,1.0,3.0,79,0.00,,OVC OVC///CB,0.00,WUHU216DAVISVP2,2013-08-27 01:06:00,
2013-08-26 21:11:00,77.8,71.4,30.01,SSW,212,1.0,3.0,80,0.00,,OVC OVC///CB,0.00,WUHU216DAVISVP2,2013-08-27 01:11:00,
2013-08-26 21:16:00,77.7,71.3,30.02,South,173,0.0,4.0,80,0.00,,OVC OVC///CB,0.00,WUHU216DAVISVP2,2013-08-27 01:16:00,
2013-08-26 21:21:00,77.6,71.2,30.02,South,169,0.0,4.0,80,0.00,,OVC OVC///CB,0.00,WUHU216DAVISVP2,2013-08-27 01:21:00,
2013-08-26 21:26:00,77.5,71.1,30.02,SW,235,0.0,4.0,80,0.00,,OVC OVC///CB,0.00,WUHU216DAVISVP2,2013-08-27 01:26:00,
2013-08-26 21:31:00,77.4,71.0,30.02,SW,218,0.0,3.0,80,0.00,,OVC OVC///CB,0.00,WUHU216DAVISVP2,2013-08-27 01:31:00,
2013-08-26 21:36:00,77.3,70.9,30.01,SSW,210,1.0,3.0,80,0.00,,OVC OVC///CB,0.00,WUHU216DAVISVP2,2013-08-27 01:36:00,
2013-08-26 21:41:00,77.1,70.7,30.01,WSW,243,2.0,3.0,80,0.00,,OVC OVC///CB,0.00,WUHU216DAVISVP2,2013-08-27 01:41:00,
2013-08-26 21:46:00,77.0,70.6,30.01,SW,226,2.0,4.0,80,0.00,,OVC OVC///CB,0.00,WUHU216DAVISVP2,2013-08-27 01:46:00,
2013-08-26 21:51:00,76.9,70.5,30.01,SW,218,0.0,5.0,80,0.00,,OVC OVC///CB,0.00,WUHU216DAVISVP2,2013-08-27 01:51:00,
2013-08-26 21:56:00,76.7,70.7,30.01,WSW,249,1.0,5.0,81,0.00,,OVC OVC///CB,0.00,WUHU216DAVISVP2,2013-08-27 01:56:00,
2013-08-26 22:01:00,76.4,70.4,30.01,SW,220,1.0,4.0,81,0.00,,OVC OVC///CB,0.00,WUHU216DAVISVP2,2013-08-27 02:01:00,
2013-08-26 22:06:00,76.2,70.5,30.00,SW,230,0.0,4.0,82,0.00,,OVC OVC///CB,0.00,WUHU216DAVISVP2,2013-08-27 02:06:00,
2013-08-26 22:11:00,76.0,70.3,30.00,SW,233,1.0,3.0,82,0.00,,OVC OVC///CB,0.00,WUHU216DAVISVP2,2013-08-27 02:11:00,
2013-08-26 22:16:00,75.8,70.1,30.00,WSW,240,0.0,3.0,82,0.00,,OVC OVC///CB,0.00,WUHU216DAVISVP2,2013-08-27 02:16:00,
2013-08-26 22:21:00,75.6,70.3,30.00,WSW,252,0.0,3.0,83,0.00,,OVC OVC///CB,0.00,WUHU216DAVISVP2,2013-08-27 02:21:00,
2013-08-26 22:26:00,75.4,70.1,30.00,SW,231,1.0,3.0,83,0.00,,OVC OVC///CB,0.00,WUHU216DAVISVP2,2013-08-27 02:26:00,
2013-08-26 22:31:00,75.2,70.2,30.00,SSW,207,1.0,3.0,84,0.00,,OVC OVC///CB,0.00,WUHU216DAVISVP2,2013-08-27 02:31:00,
2013-08-26 22:36:00,75.0,70.0,30.00,SW,215,0.0,3.0,84,0.00,,OVC OVC///CB,0.00,WUHU216DAVISVP2,2013-08-27 02:36:00,
2013-08-26 22:41:00,74.8,70.2,30.00,SW,221,0.0,3.0,85,0.00,,OVC OVC///CB,0.00,WUHU216DAVISVP2,2013-08-27 02:41:00,
2013-08-26 22:46:00,74.6,70.0,30.00,SW,231,1.0,3.0,85,0.00,,OVC OVC///CB,0.00,WUHU216DAVISVP2,2013-08-27 02:46:00,
2013-08-26 22:51:00,74.4,70.1,29.99,SSW,212,1.0,4.0,86,0.00,,OVC OVC///CB,0.00,WUHU216DAVISVP2,2013-08-27 02:51:00,
2013-08-26 22:56:00,74.1,69.8,29.99,SW,233,2.0,4.0,86,0.00,,OVC OVC///CB,0.00,WUHU216DAVISVP2,2013-08-27 02:56:00,
2013-08-26 23:01:00,73.9,69.9,29.99,SW,226,1.0,5.0,87,0.00,,OVC OVC///CB,0.00,WUHU216DAVISVP2,2013-08-27 03:01:00,
2013-08-26 23:06:00,73.8,69.8,29.99,SW,222,0.0,5.0,87,0.00,,OVC OVC///CB,0.00,WUHU216DAVISVP2,2013-08-27 03:06:00,
2013-08-26 23:11:00,73.7,69.7,30.00,SW,215,1.0,4.0,87,0.00,,OVC OVC///CB,0.00,WUHU216DAVISVP2,2013-08-27 03:11:00,
2013-08-26 23:16:00,73.7,69.7,30.00,SSW,210,1.0,5.0,87,0.00,,OVC OVC///CB,0.00,WUHU216DAVISVP2,2013-08-27 03:16:00,
2013-08-26 23:21:00,73.9,69.9,30.00,SW,222,0.0,5.0,87,0.00,,OVC OVC///CB,0.00,WUHU216DAVISVP2,2013-08-27 03:21:00,
2013-08-26 23:26:00,73.9,69.9,29.99,WSW,248,4.0,5.0,87,0.00,,OVC OVC///CB,0.00,WUHU216DAVISVP2,2013-08-27 03:26:00,
2013-08-26 23:31:00,74.0,70.0,29.99,West,280,2.0,5.0,87,0.00,,OVC OVC///CB,0.00,WUHU216DAVISVP2,2013-08-27 03:31:00,
2013-08-26 23:36:00,73.9,69.9,29.99,WSW,245,5.0,5.0,87,0.00,,OVC OVC///CB,0.00,WUHU216DAVISVP2,2013-08-27 03:36:00,
2013-08-26 23:41:00,74.0,70.0,29.99,SSW,200,1.0,5.0,87,0.00,,OVC OVC///CB,0.00,WUHU216DAVISVP2,2013-08-27 03:41:00,
2013-08-26 23:46:00,74.0,69.7,29.99,WSW,250,3.0,5.0,86,0.00,,OVC OVC///CB,0.00,WUHU216DAVISVP2,2013-08-27 03:46:00,
2013-08-26 23:51:00,73.9,69.9,29.99,WSW,245,1.0,6.0,87,0.00,,OVC OVC///CB,0.00,WUHU216DAVISVP2,2013-08-27 03:51:00,
2013-08-26 23:56:00,73.9,69.9,29.99,SW,233,1.0,7.0,87,0.00,,OVC OVC///CB,0.00,WUHU216DAVISVP2,2013-08-27 03:56:00,